Gypsum, OH

12:56 PM EDT on August 27, 2016 (GMT -0400)
Keller

Weather History for KPCW - March, 2014

Change the Weather History Date:

Saturday, March 29, 2014

  Actual Average (KTOL) Record (KTOL)
Temperature  
Mean Temperature 34 °F 43 °F  
Max Temperature 39 °F 53 °F 80 °F (1963)
Min Temperature 30 °F 33 °F 8 °F (1887)
Degree Days  
Heating Degree Days 30 22  
Month to date heating degree days 806  
Since 1 July heating degree days 5382  
Cooling Degree Days 0 0  
Month to date cooling degree days 0  
Year to date cooling degree days 0  
Moisture  
Dew Point 30 °F    
Average Humidity 85    
Maximum Humidity 100    
Minimum Humidity 79    
Precipitation  
Precipitation 0.00 in 0.09 in 0.77 in (1979)
Month to date precipitation 2.29  
Year to date precipitation 6.41  
Snow  
Snow 0.00 in 0.10 in - ()
Month to date snowfall 5.5  
Since 1 July snowfall 36.0  
Snow Depth -    
Sea Level Pressure  
Sea Level Pressure 30.08 in    
Wind  
Wind Speed 10 mph (NE)    
Max Wind Speed 20 mph    
Max Gust Speed -    
Visibility 9 miles    
Events Snow    
T = Trace of Precipitation, MM = Missing Value Source: NWS Daily Summary

Daily Weather History Graph

Daily Weather History Graph

Search for Another Location

Airport or City:

Trip Planner

Search our weather history database for the weather conditions in past years. The results will help you decide how hot, cold, wet, or windy it might be!

Date:

Astronomy

Mar. 29, 2014 Rise Set
Actual Time 7:19 AM EDT 7:53 PM EDT
Civil Twilight 6:51 AM EDT 8:21 PM EDT
Nautical Twilight 6:18 AM EDT 8:54 PM EDT
Astronomical Twilight 5:45 AM EDT 9:28 PM EDT
Moon 6:28 AM EDT (3/29) 6:56 PM EDT (3/29)
Length of Visible Light 13h 29m
Length of Day
12h 33m
Waning Crescent, 2% of the Moon is Illuminated
Mar 29
Waning Crescent
Mar 30
New
Apr 7
First Quarter
Apr 15
Full
Apr 22
Last Quarter

Hourly Weather History & Observations

Time (EDT) Temp. Windchill Dew Point Humidity Pressure Visibility Wind Dir Wind Speed Gust Speed Precip Events Conditions
12:13 AM 37.4 °F 32.8 °F 33.8 °F 87% 30.17 in 10.0 mi ENE 5.8 mph - N/A   Overcast
12:33 AM 37.4 °F 32.8 °F 33.8 °F 87% 30.16 in 10.0 mi East 5.8 mph - N/A   Overcast
12:54 AM 38.8 °F 34.6 °F 32.9 °F 79% 30.15 in 10.0 mi East 5.8 mph - N/A   Overcast
1:13 AM 37.4 °F 33.8 °F 33.8 °F 87% 30.15 in 10.0 mi East 4.6 mph - N/A   Overcast
1:34 AM 39.2 °F 35.9 °F 33.8 °F 81% 30.16 in 10.0 mi East 4.6 mph - N/A   Overcast
1:54 AM 37.9 °F 35.5 °F 32.9 °F 82% 30.16 in 10.0 mi East 3.5 mph - N/A   Overcast
2:13 AM 37.4 °F 33.8 °F 33.8 °F 87% 30.15 in 10.0 mi ENE 4.6 mph - N/A   Overcast
2:34 AM 37.4 °F 32.8 °F 32.0 °F 81% 30.14 in 10.0 mi ENE 5.8 mph - N/A   Overcast
2:54 AM 36.9 °F 32.2 °F 32.0 °F 83% 30.13 in 10.0 mi ENE 5.8 mph - N/A   Overcast
3:13 AM 35.6 °F 29.9 °F 32.0 °F 87% 30.14 in 10.0 mi NE 6.9 mph - N/A   Overcast
3:34 AM 35.6 °F 28.0 °F 32.0 °F 87% 30.12 in 10.0 mi ENE 10.4 mph - N/A   Overcast
3:53 AM 34.9 °F 27.7 °F 32.0 °F 89% 30.12 in 10.0 mi ENE 9.2 mph - N/A   Overcast
4:14 AM 35.6 °F 28.0 °F 32.0 °F 87% 30.12 in 10.0 mi East 10.4 mph - N/A   Overcast
4:34 AM 35.6 °F 28.6 °F 32.0 °F 87% 30.12 in 10.0 mi ENE 9.2 mph - N/A   Overcast
4:53 AM 34.9 °F 26.6 °F 32.0 °F 89% 30.12 in 10.0 mi East 11.5 mph - N/A   Overcast
5:14 AM 35.6 °F 28.0 °F 32.0 °F 87% 30.11 in 10.0 mi East 10.4 mph - N/A   Overcast
5:34 AM 35.6 °F 28.0 °F 32.0 °F 87% 30.11 in 10.0 mi East 10.4 mph - N/A   Overcast
5:53 AM 36.0 °F 27.5 °F 32.0 °F 86% 30.12 in 10.0 mi East 12.7 mph - N/A   Overcast
6:14 AM 35.6 °F 28.6 °F 30.2 °F 81% 30.13 in 10.0 mi East 9.2 mph - N/A   Overcast
6:33 AM 35.6 °F 28.0 °F 30.2 °F 81% 30.12 in 10.0 mi East 10.4 mph - N/A   Overcast
6:53 AM 34.0 °F 26.0 °F 31.1 °F 89% 30.11 in 10.0 mi East 10.4 mph - N/A   Overcast
7:14 AM 33.8 °F 24.3 °F 30.2 °F 87% 30.11 in 10.0 mi East 13.8 mph - N/A   Overcast
7:33 AM 33.8 °F 24.3 °F 30.2 °F 87% 30.10 in 10.0 mi East 13.8 mph - N/A   Overcast
7:53 AM 33.8 °F 24.8 °F 30.2 °F 87% 30.10 in 10.0 mi East 12.7 mph - N/A   Overcast
8:14 AM 33.8 °F 24.8 °F 30.2 °F 87% 30.11 in 10.0 mi East 12.7 mph - N/A   Overcast
8:34 AM 33.8 °F 24.8 °F 30.2 °F 87% 30.11 in 10.0 mi ENE 12.7 mph - N/A   Overcast
8:53 AM 34.0 °F 25.0 °F 30.0 °F 85% 30.10 in 10.0 mi ENE 12.7 mph - N/A   Overcast
9:14 AM 33.8 °F 24.8 °F 28.4 °F 81% 30.10 in 10.0 mi ENE 12.7 mph - N/A   Overcast
9:33 AM 33.8 °F 24.3 °F 28.4 °F 81% 30.11 in 10.0 mi ENE 13.8 mph - N/A   Overcast
9:53 AM 34.0 °F 24.6 °F 29.1 °F 82% 30.09 in 10.0 mi NE 13.8 mph - N/A   Overcast
10:14 AM 33.8 °F 24.3 °F 28.4 °F 81% 30.11 in 10.0 mi NE 13.8 mph - N/A   Overcast
10:33 AM 33.8 °F 25.3 °F 28.4 °F 81% 30.11 in 10.0 mi NE 11.5 mph - N/A   Overcast
10:45 AM 33.8 °F 23.9 °F 28.4 °F 81% 30.11 in 10.0 mi NE 15.0 mph - N/A   Mostly Cloudy
11:12 AM 33.8 °F 24.3 °F 28.4 °F 81% 30.09 in 10.0 mi NE 13.8 mph - N/A   Scattered Clouds
11:34 AM 33.8 °F 25.3 °F 28.4 °F 81% 30.08 in 10.0 mi NE 11.5 mph - N/A   Overcast
11:53 AM 34.0 °F 24.2 °F 28.0 °F 79% 30.08 in 10.0 mi NE 15.0 mph - N/A   Overcast
12:13 PM 33.8 °F 25.3 °F 28.4 °F 81% 30.08 in 10.0 mi NNE 11.5 mph - N/A   Overcast
12:33 PM 33.8 °F 25.3 °F 28.4 °F 81% 30.09 in 10.0 mi NE 11.5 mph - N/A   Overcast
12:46 PM 34.0 °F 25.5 °F 29.1 °F 82% 30.08 in 10.0 mi NNE 11.5 mph - N/A   Overcast
1:14 PM 33.8 °F 24.8 °F 28.4 °F 81% 30.07 in 10.0 mi NNE 12.7 mph - N/A   Overcast
1:33 PM 33.8 °F 26.4 °F 28.4 °F 81% 30.07 in 10.0 mi NNE 9.2 mph - N/A   Overcast
1:54 PM 33.8 °F 26.4 °F 28.4 °F 81% 30.06 in 10.0 mi NNE 9.2 mph - N/A   Overcast
2:14 PM 33.8 °F 24.8 °F 28.4 °F 81% 30.05 in 10.0 mi NNE 12.7 mph - N/A   Overcast
2:33 PM 33.8 °F 25.3 °F 28.4 °F 81% 30.04 in 10.0 mi NNE 11.5 mph - N/A   Overcast
2:54 PM 34.0 °F 23.8 °F 29.1 °F 82% 30.02 in 10.0 mi NNE 16.1 mph - N/A   Overcast
3:14 PM 33.8 °F 25.3 °F 30.2 °F 87% 30.00 in 10.0 mi NNE 11.5 mph - N/A   Overcast
3:33 PM 33.8 °F 24.3 °F 28.4 °F 81% 30.00 in 10.0 mi NNE 13.8 mph - N/A   Overcast
3:51 PM 34.0 °F 25.0 °F 29.1 °F 82% 30.01 in 10.0 mi NE 12.7 mph - N/A   Overcast
4:13 PM 33.8 °F 23.2 °F 28.4 °F 81% 30.00 in 10.0 mi NE 17.3 mph - N/A   Overcast
4:34 PM 33.8 °F 23.5 °F 28.4 °F 81% 29.99 in 10.0 mi NE 16.1 mph - N/A   Overcast
4:53 PM 33.8 °F 22.5 °F 28.4 °F 81% 29.99 in 10.0 mi NE 19.6 mph - N/A   Overcast
5:13 PM 33.8 °F 24.8 °F 28.4 °F 81% 29.98 in 5.0 mi NNE 12.7 mph - N/A Snow Light Snow
5:31 PM 32.0 °F 21.6 °F 28.4 °F 87% 29.99 in 1.2 mi NNE 15.0 mph - N/A Snow Light Snow
5:45 PM 30.2 °F 19.3 °F 30.2 °F 100% 30.00 in 1.0 mi NNE 15.0 mph - N/A Snow Light Snow
6:14 PM 30.2 °F 19.8 °F 28.4 °F 93% 30.01 in 0.8 mi NNE 13.8 mph - N/A Snow Light Snow
6:24 PM 30.2 °F 19.3 °F 30.2 °F 100% 30.01 in 1.2 mi NNE 15.0 mph - N/A Snow Light Snow
6:43 PM 30.2 °F 19.8 °F 30.2 °F 100% 30.01 in 1.8 mi NNE 13.8 mph - N/A Snow Light Snow
7:11 PM 30.2 °F 18.9 °F 28.4 °F 93% 30.04 in 7.0 mi NNE 16.1 mph - N/A   Overcast
7:34 PM 30.2 °F 18.5 °F 28.4 °F 93% 30.04 in 9.0 mi NNE 17.3 mph - N/A   Mostly Cloudy
7:41 PM 32.0 °F 22.5 °F 28.4 °F 87% 30.04 in 10.0 mi NNE 12.7 mph - N/A   Mostly Cloudy
8:14 PM 32.0 °F 20.8 °F 28.4 °F 87% 30.05 in 10.0 mi NNE 17.3 mph - N/A   Overcast
8:34 PM 32.0 °F 21.6 °F 28.4 °F 87% 30.06 in 10.0 mi NNE 15.0 mph - N/A   Overcast
8:54 PM 32.0 °F 21.6 °F 28.4 °F 87% 30.06 in 10.0 mi North 15.0 mph - N/A   Overcast
9:13 PM 32.0 °F 21.6 °F 28.4 °F 87% 30.07 in 10.0 mi North 15.0 mph - N/A   Overcast
9:33 PM 32.0 °F 22.1 °F 28.4 °F 87% 30.06 in 10.0 mi North 13.8 mph - N/A   Overcast
9:53 PM 32.0 °F 20.8 °F 28.0 °F 85% 30.07 in 10.0 mi North 17.3 mph - N/A   Overcast
10:13 PM 32.0 °F 21.6 °F 28.4 °F 87% 30.07 in 10.0 mi North 15.0 mph - N/A   Overcast
10:34 PM 30.2 °F 18.1 °F 28.4 °F 93% 30.07 in 10.0 mi North 18.4 mph - N/A   Overcast
10:53 PM 32.0 °F 21.6 °F 28.4 °F 87% 30.07 in 10.0 mi North 15.0 mph - N/A   Overcast
11:14 PM 32.0 °F 21.2 °F 28.4 °F 87% 30.07 in 10.0 mi North 16.1 mph - N/A   Overcast
11:31 PM 32.0 °F 21.2 °F 28.4 °F 87% 30.08 in 10.0 mi North 16.1 mph - N/A   Overcast
11:54 PM 30.2 °F 19.8 °F 28.4 °F 93% 30.08 in 10.0 mi North 13.8 mph - N/A   Overcast